FW3698 Weather Reports


time (UTC)temp
C
wind
direction
speed
KPH
gust
KPH
rain 1hr
cm
rain 24hr
cm
rain mn
cm
humidity
%
barometer
mb
20260506033122 20 180 0.0 0.0 0.00 0.00 0.00 72 1013.0
20260506032123 19 225 0.0 0.0 0.00 0.00 0.00 74 1013.0
20260506031124 18 270 0.0 3.2 0.00 0.00 0.00 78 1012.8
20260506030122 18 203 0.0 0.0 0.00 0.00 0.00 77 1012.7
20260506025124 18 227 0.0 4.8 0.00 0.00 0.00 77 1012.7
20260506024144 18 223 1.6 4.8 0.00 0.00 0.00 76 1012.8
20260506023122 18 221 3.2 6.4 0.00 0.00 0.00 76 1012.8
20260506022145 19 210 3.2 6.4 0.00 0.00 0.00 75 1012.8
20260506021122 19 223 3.2 9.7 0.00 0.00 0.00 74 1012.7
20260506020143 19 223 4.8 11.3 0.00 0.00 0.00 73 1012.7
20260506015123 20 224 3.2 8.0 0.00 0.00 0.00 72 1012.7
20260506014122 20 216 1.6 4.8 0.00 0.00 0.00 71 1012.8
20260506013122 21 238 1.6 6.4 0.00 0.00 0.00 69 1012.9
20260506012124 22 224 3.2 9.7 0.00 0.00 0.00 66 1012.9
20260506011122 21 233 3.2 8.0 0.00 0.00 0.00 68 1012.9
20260506010122 20 219 3.2 9.7 0.00 0.00 0.00 70 1012.9
20260506005124 20 218 4.8 12.9 0.00 0.00 0.00 72 1012.9
20260506004122 20 228 4.8 11.3 0.00 0.00 0.00 70 1013.0
20260506003122 21 240 3.2 8.0 0.00 0.00 0.00 68 1013.0
20260506002123 21 241 1.6 9.7 0.00 0.00 0.00 67 1013.0
20260506001122 21 306 1.6 6.4 0.00 0.00 0.00 67 1013.1
20260506000145 21 235 3.2 9.7 0.00 0.00 0.00 68 1013.1
20260505235123 21 344 1.6 4.8 0.00 0.00 0.00 67 1013.1
20260505234122 20 229 4.8 11.3 0.00 0.00 0.00 72 1013.2
20260505233145 20 224 3.2 8.0 0.00 0.00 0.00 70 1013.4
20260505232122 20 219 4.8 11.3 0.00 0.00 0.00 70 1013.4
20260505231143 20 239 3.2 6.4 0.00 0.00 0.00 70 1013.5
20260505230123 21 262 1.6 4.8 0.00 0.00 0.00 69 1013.7
20260505225144 21 273 1.6 6.4 0.00 0.00 0.00 70 1013.7
20260505224122 21 264 3.2 6.4 0.00 0.00 0.00 69 1013.8
20260505223122 20 251 3.2 12.9 0.00 0.00 0.00 71 1014.0
20260505222122 21 249 3.2 9.7 0.00 0.00 0.00 70 1014.0
20260505221124 20 261 3.2 8.0 0.00 0.00 0.00 70 1014.1
20260505220124 21 274 1.6 4.8 0.00 0.00 0.00 69 1014.1
20260505215122 20 258 3.2 9.7 0.00 0.00 0.00 70 1014.1
20260505214123 19 236 3.2 11.3 0.00 0.00 0.00 73 1014.2
20260505213123 20 265 1.6 6.4 0.00 0.00 0.00 72 1014.2
20260505212123 19 250 3.2 8.0 0.00 0.00 0.00 73 1014.2
20260505211122 19 248 3.2 6.4 0.00 0.00 0.00 74 1014.5
20260505210122 19 242 3.2 9.7 0.00 0.00 0.00 75 1014.4
20260505205124 19 249 1.6 8.0 0.00 0.00 0.00 74 1014.4
20260505204124 19 246 3.2 9.7 0.00 0.00 0.00 74 1014.5
20260505203124 18 241 4.8 14.5 0.00 0.00 0.00 76 1014.5
20260505202122 19 254 3.2 9.7 0.00 0.00 0.00 74 1014.5
20260505201143 18 258 3.2 12.9 0.00 0.00 0.00 76 1014.6
20260505200123 18 259 3.2 9.7 0.00 0.00 0.00 76 1014.6
20260505195124 18 262 1.6 11.3 0.00 0.00 0.00 76 1014.6
20260505194122 18 255 3.2 12.9 0.00 0.00 0.00 77 1014.6
20260505193143 18 266 3.2 12.9 0.00 0.00 0.00 76 1014.7
20260505192122 17 231 1.6 8.0 0.00 0.00 0.00 78 1014.6
20260505191122 17 246 3.2 9.7 0.00 0.00 0.00 78 1014.6
20260505190143 17 238 1.6 8.0 0.00 0.00 0.00 78 1014.5
20260505185124 17 251 1.6 6.4 0.00 0.00 0.00 77 1014.5
20260505184123 18 254 0.0 6.4 0.00 0.00 0.00 77 1014.5
20260505183143 17 240 0.0 6.4 0.00 0.00 0.00 78 1014.5
20260505182124 17 226 1.6 4.8 0.00 0.00 0.00 78 1014.4
20260505181122 17 205 1.6 6.4 0.00 0.00 0.00 79 1014.2
20260505180122 17 202 1.6 4.8 0.00 0.00 0.00 79 1014.4
20260505175123 18 202 0.0 6.4 0.00 0.00 0.00 76 1014.4
20260505174143 18 202 0.0 4.8 0.00 0.00 0.00 76 1014.4
20260505173122 17 202 0.0 4.8 0.00 0.00 0.00 76 1014.4
20260505172144 17 202 0.0 4.8 0.00 0.00 0.00 76 1014.2
20260505171122 17 202 0.0 4.8 0.00 0.00 0.00 76 1014.4
20260505170122 17 202 0.0 4.8 0.00 0.00 0.00 76 1014.2
20260505165123 17 202 1.6 6.4 0.00 0.00 0.00 76 1014.2
20260505164122 17 202 0.0 6.4 0.00 0.00 0.00 75 1014.2
20260505163123 17 202 0.0 4.8 0.00 0.00 0.00 76 1014.1
20260505162123 17 203 0.0 0.0 0.00 0.00 0.00 76 1014.0
20260505161122 16 113 0.0 0.0 0.00 0.00 0.00 78 1014.0
20260505160124 16 113 0.0 0.0 0.00 0.00 0.00 77 1013.9
20260505153124 14 113 0.0 0.0 0.00 0.00 0.00 83 1013.8
20260505152123 14 113 0.0 0.0 0.00 0.00 0.00 84 1013.6
20260505151123 14 113 0.0 0.0 0.00 0.00 0.00 85 1013.6
20260505150123 14 113 0.0 0.0 0.00 0.00 0.00 85 1013.4
20260505140122 13 113 0.0 0.0 0.00 0.00 0.00 86 1012.6
20260505130122 13 113 0.0 0.0 0.00 0.00 0.00 84 1011.9
20260505124122 13 113 0.0 0.0 0.00 0.00 0.00 84 1011.8
20260505123122 13 113 0.0 0.0 0.00 0.00 0.00 85 1011.7
20260505122144 13 113 0.0 0.0 0.00 0.00 0.00 84 1011.6
20260505121122 13 113 0.0 0.0 0.00 0.00 0.00 83 1011.5
20260505120122 13 113 0.0 0.0 0.00 0.00 0.00 83 1011.2
20260505115123 13 113 0.0 0.0 0.00 0.00 0.00 82 1011.2
20260505114124 14 113 0.0 0.0 0.00 0.00 0.00 80 1011.2
20260505113122 14 113 0.0 0.0 0.00 0.00 0.00 82 1011.2
20260505112122 14 113 0.0 0.0 0.00 0.00 0.00 81 1011.2
20260505111123 14 113 0.0 0.0 0.00 0.00 0.00 78 1011.2
20260505110123 14 113 0.0 0.0 0.00 0.00 0.00 77 1011.2
20260505102123 14 113 0.0 0.0 0.00 0.00 0.00 77 1010.7
20260505101143 14 113 0.0 0.0 0.00 0.00 0.00 77 1010.7
20260505100122 15 113 0.0 0.0 0.00 0.00 0.00 75 1010.5
20260505095123 15 113 0.0 0.0 0.00 0.00 0.00 76 1010.5
20260505094123 15 113 0.0 0.0 0.00 0.00 0.00 74 1010.2
20260505093122 15 113 0.0 0.0 0.00 0.00 0.00 72 1010.2
20260505092123 15 113 0.0 0.0 0.00 0.00 0.00 73 1010.1
20260505091123 15 113 0.0 0.0 0.00 0.00 0.00 73 1009.9
20260505090122 15 113 0.0 3.2 0.00 0.00 0.00 73 1009.8
20260505085123 15 113 0.0 0.0 0.00 0.00 0.00 71 1009.8
20260505084143 15 113 0.0 0.0 0.00 0.00 0.00 69 1009.7
20260505083122 16 113 0.0 0.0 0.00 0.00 0.00 69 1009.5
20260505082125 16 113 0.0 0.0 0.00 0.00 0.00 69 1009.5
20260505081122 16 113 0.0 0.0 0.00 0.00 0.00 65 1009.5
20260505080123 16 113 0.0 0.0 0.00 0.00 0.00 66 1009.2
20260505075123 16 113 0.0 0.0 0.00 0.00 0.00 67 1009.2
20260505074122 16 113 0.0 0.0 0.00 0.00 0.00 65 1009.4
20260505073124 16 113 0.0 0.0 0.00 0.00 0.00 64 1009.2
20260505072122 16 113 0.0 0.0 0.00 0.00 0.00 63 1009.1
20260505071144 16 113 0.0 0.0 0.00 0.00 0.00 62 1009.0
20260505070122 16 113 0.0 0.0 0.00 0.00 0.00 63 1009.0
20260505065122 16 113 0.0 0.0 0.00 0.00 0.00 62 1009.0
20260505064124 16 113 0.0 0.0 0.00 0.00 0.00 62 1009.0
20260505063143 16 113 0.0 0.0 0.00 0.00 0.00 64 1008.7
20260505062123 17 113 0.0 0.0 0.00 0.00 0.00 59 1008.7
20260505061122 17 113 0.0 0.0 0.00 0.00 0.00 59 1008.7
20260505060124 17 113 0.0 0.0 0.00 0.00 0.00 59 1008.6
20260505055124 17 113 0.0 0.0 0.00 0.00 0.00 59 1008.6
20260505054122 18 113 0.0 0.0 0.00 0.00 0.00 57 1008.5
20260505053124 18 113 0.0 0.0 0.00 0.00 0.00 57 1008.5
20260505052144 18 113 0.0 0.0 0.00 0.00 0.00 57 1008.4
20260505051122 18 113 0.0 0.0 0.00 0.00 0.00 58 1008.2
20260505050123 18 113 0.0 0.0 0.00 0.00 0.00 57 1008.1
20260505041122 20 113 0.0 0.0 0.00 0.00 0.00 57 1007.8
20260505040145 20 113 0.0 0.0 0.00 0.00 0.00 57 1007.7
20260505035123 21 113 0.0 0.0 0.00 0.00 0.00 56 1007.7
20260505034144 23 113 0.0 0.0 0.00 0.00 0.00 52 1007.6